Location: Oshawa
(43.9000°N, 78.8670°W)
Time: 06:24:20
(UTC-04:00)

Courier 1B - All Passes

Search period start: 20 April 2018 00:00
Search period end: 30 April 2018 00:00
Orbit: 962 x 1209 km, 28.3° (Epoch: 19 April)

Date Brightness Start Highest point End Pass type
(mag) Time Alt. Az. Time Alt. Az. Time Alt. Az.
20 Apr - 00:24:33 10° SSW 00:28:01 15° SSE 00:31:34 10° SE night (unlit)
20 Apr - 02:16:00 10° SW 02:20:56 21° S 02:26:03 10° SE visible
20 Apr - 04:09:23 10° SW 04:13:59 19° SSW 04:18:45 10° SSE visible
20 Apr - 23:32:22 10° S 23:34:36 12° SSE 23:36:51 10° SE night (unlit)
21 Apr - 01:22:46 10° SW 01:27:25 20° S 01:32:14 10° SE night (unlit)
21 Apr - 03:15:42 10° SW 03:20:26 20° S 03:25:22 10° SE visible
21 Apr - 05:11:11 10° SW 05:13:25 12° SSW 05:15:41 10° S visible
22 Apr - 00:29:39 10° SSW 00:33:56 18° S 00:38:20 10° SE night (unlit)
22 Apr - 02:22:08 10° SW 02:26:54 21° S 02:31:51 10° SE night (unlit)
22 Apr - 04:16:34 10° SW 04:19:54 14° SSW 04:23:18 10° S visible
22 Apr - 23:36:43 10° SSW 23:40:29 16° SSE 23:44:19 10° SE night (unlit)
23 Apr - 01:28:42 10° SW 01:33:24 21° S 01:38:15 10° SE night (unlit)
23 Apr - 03:22:30 10° SW 03:26:23 16° SSW 03:30:24 10° SSE visible
23 Apr - 22:44:04 10° S 22:47:03 13° SSE 22:50:04 10° SE visible
24 Apr - 00:35:21 10° SW 00:39:55 20° S 00:44:36 10° SE night (unlit)
24 Apr - 02:28:39 10° SW 02:32:52 18° S 02:37:14 10° SSE night (unlit)
24 Apr - 21:52:07 10° S 21:53:39 11° SSE 21:55:10 10° SE visible
24 Apr - 23:42:06 10° SW 23:46:27 19° S 23:50:52 10° SE night (unlit)
25 Apr - 01:35:00 10° SW 01:39:23 19° S 01:43:54 10° SE night (unlit)
25 Apr - 03:30:38 10° SW 03:32:17 11° SSW 03:33:57 10° S night (unlit)
25 Apr - 22:48:58 10° SSW 22:53:00 17° S 22:57:03 10° SE visible
26 Apr - 00:41:26 10° SW 00:45:55 20° S 00:50:29 10° SE night (unlit)
26 Apr - 02:35:54 10° SW 02:38:49 13° SSW 02:41:48 10° S night (unlit)
26 Apr - 21:56:01 10° SSW 21:59:34 15° SSE 22:03:06 10° SE visible
26 Apr - 23:47:57 10° SW 23:52:27 20° S 23:56:59 10° SE visible
27 Apr - 01:41:47 10° SW 01:45:21 15° SSW 01:49:01 10° SSE night (unlit)
27 Apr - 21:03:19 10° S 21:06:08 13° SSE 21:08:55 10° SE visible
27 Apr - 22:54:34 10° SW 22:58:59 19° S 23:03:26 10° SE visible
28 Apr - 00:47:55 10° SW 00:51:54 17° S 00:55:56 10° SSE night (unlit)
28 Apr - 20:11:22 10° S 20:12:42 11° SSE 20:14:02 10° SSE daylight
28 Apr - 22:01:15 10° SW 22:05:32 18° S 22:09:48 10° SE visible
28 Apr - 23:54:12 10° SW 23:58:27 18° S 00:02:44 10° SE visible
29 Apr - 01:50:06 10° SSW 01:51:16 10° SSW 01:52:28 10° S night (unlit)
29 Apr - 21:08:02 10° SSW 21:12:05 17° S 21:16:04 10° SE visible
29 Apr - 23:00:34 10° SW 23:05:00 19° S 23:09:25 10° SE visible
